Location: Unspecified
(0.0000°N, 0.0000°E)
Time: 13:02:15
(UTC+00:00)

ADRAS-J - Pass Details

Date: 21 May 2025
Orbit: 544 x 592 km, 98.2° (Epoch: 16 June)

Event Time Altitude Azimuth Distance (km) Brightness Sun altitude
Rises 04:58:24 0° 18° (NNE) 2,802 ? -13.6°
Reaches altitude 10° 05:00:34 10° 21° (NNE) 1,909 ? -13.1°
Maximum altitude 05:04:40 63° 102° (ESE) 664 ? -12.2°
Drops below altitude 10° 05:08:48 10° 183° (S) 1,924 ? -11.2°
Sets 05:10:59 0° 186° (S) 2,827 ? -10.7°
